Theta_e
304 304 303 302 303 302 302 301 301 300 300 297 294 297 293 292 289 302 304 305 302 294 286 288 286 284 288 293 291 293 291 289 291 289 291 288 291 290 288 286 285 287 285 285 285 286 284 286 284 286 287 287 289 290 292 294 291 292 291 290 291 295 287 286 286 288 289 289 291 294 294 293 290 291 292 291 289 290 289 289 292 287 289 286 287 283 290
304 304 304 303 303 303 302 301 301 300 300 297 296 292 291 292 291 295 304 306 301 291 282 283 285 286 288 289 288 292 290 289 288 288 290 289 289 288 287 288 288 286 287 286 285 288 282 288 287 287 287 287 292 290 291 294 291 291 290 288 297 286 289 287 283 283 284 286 289 289 292 293 290 290 292 292 293 293 294 293 293 287 289 289 286 282 288
304 304 304 304 303 303 302 301 301 301 301 300 296 290 292 291 294 293 297 302 299 287 289 286 284 285 285 285 285 287 288 291 290 290 289 292 290 289 287 288 290 287 289 287 288 289 286 285 290 289 288 290 292 291 292 294 292 293 295 296 297 289 289 286 281 277 275 275 277 280 283 287 291 292 291 292 292 292 290 286 289 284 291 290 287 286 294
304 304 304 304 304 303 302 301 301 301 300 300 297 293 292 291 285 291 293 296 295 294 296 291 287 285 284 284 286 287 286 290 292 292 290 292 291 291 290 291 290 287 286 285 285 286 290 287 287 289 289 291 289 289 292 293 293 296 300 300 295 289 293 290 289 285 283 285 287 290 291 290 287 289 290 289 292 293 295 294 288 285 289 287 292 292 293
304 304 304 304 303 303 302 301 301 300 300 300 297 294 292 293 287 286 284 292 292 290 293 290 290 285 286 283 286 284 286 288 289 293 288 291 290 290 289 288 284 283 283 284 282 285 286 290 289 289 290 292 293 291 291 292 295 299 297 300 294 294 289 291 291 290 290 290 289 290 291 288 289 289 289 290 290 293 293 288 287 296 289 285 294 296 294
304 303 304 303 303 303 302 301 301 300 300 300 299 292 294 287 290 292 292 285 284 286 288 291 288 289 287 284 286 285 285 286 284 289 291 292 292 288 289 289 289 287 285 283 278 284 285 288 287 290 290 291 292 288 289 290 295 297 295 300 295 292 287 290 290 290 291 290 290 290 290 290 290 290 290 290 290 292 291 292 294 295 288 286 295 296 295
303 303 303 303 303 303 302 302 301 300 299 299 296 289 293 292 290 290 293 285 288 288 289 289 288 287 289 285 286 283 283 284 289 289 291 291 289 290 285 287 288 285 288 287 286 288 286 286 290 291 292 292 290 287 287 290 294 295 296 298 299 294 289 292 290 289 290 290 290 291 289 289 290 290 290 291 291 292 293 293 293 295 294 296 297 300 298
304 303 303 303 304 303 303 302 301 300 299 298 294 290 287 285 284 284 290 288 286 287 288 288 288 287 292 287 289 285 285 285 289 292 289 287 290 290 287 288 289 288 288 287 283 287 292 291 289 294 293 293 292 288 291 289 292 294 293 294 296 291 287 292 291 289 290 291 291 291 290 289 289 290 291 291 291 292 293 294 295 295 296 296 294 295 297
304 304 303 303 303 303 303 302 301 300 299 292 290 290 291 290 292 290 285 283 286 289 290 289 288 287 291 288 290 290 291 289 292 291 296 293 291 289 289 289 287 292 288 287 288 291 290 292 293 296 295 291 295 291 293 292 290 291 292 294 295 293 288 292 292 285 287 290 290 288 289 289 289 289 289 290 290 290 292 290 296 293 292 295 296 292 294
304 304 304 304 303 303 303 302 301 299 299 293 291 287 293 292 295 294 289 282 289 287 289 289 290 287 292 291 290 289 290 292 292 288 294 295 297 296 293 293 292 292 292 291 294 296 295 295 297 298 298 298 298 298 297 296 293 291 291 296 293 292 291 288 288 286 286 289 288 287 287 287 284 286 290 292 292 294 295 294 296 297 298 295 290 293 300
303 304 303 304 303 303 303 302 302 300 298 292 290 289 291 288 287 289 289 282 286 289 287 287 287 291 292 292 290 292 291 292 292 288 289 295 296 296 296 294 293 292 292 297 302 301 300 302 301 301 298 297 297 297 297 297 297 294 294 294 293 293 293 289 292 285 286 290 289 290 286 279 282 294 296 294 292 293 292 292 294 298 300 297 300 299 304
303 303 303 304 303 303 303 302 302 301 299 297 296 292 293 293 291 290 286 282 284 289 287 285 287 290 289 291 290 289 290 291 291 293 290 293 296 297 297 296 294 288 299 304 303 303 303 301 300 299 298 298 297 298 297 295 295 295 296 296 293 294 293 290 290 286 285 289 288 284 278 282 294 294 294 295 298 295 295 296 297 298 299 301 299 300 302
303 303 303 303 304 303 303 302 302 301 300 298 296 291 294 295 291 288 287 284 282 285 284 286 290 289 290 291 290 290 292 293 293 294 294 293 294 296 298 297 296 298 304 303 302 300 296 295 295 294 294 293 295 295 295 294 294 296 295 297 296 290 291 289 287 287 287 286 285 277 280 292 294 295 295 297 296 297 296 295 299 300 300 301 302 304 304
303 303 303 303 304 303 302 303 302 302 301 299 295 294 295 294 290 289 288 284 283 287 288 286 288 289 289 289 289 291 292 292 293 294 293 295 294 295 299 299 302 305 304 303 300 296 294 292 289 291 292 292 293 292 293 296 296 297 297 296 299 297 294 290 288 290 284 285 285 285 291 293 294 294 294 294 295 294 292 288 293 302 300 300 301 304 304
303 303 303 303 304 303 302 302 302 302 301 300 297 296 295 294 293 290 291 288 282 285 287 283 288 288 288 289 290 289 291 290 291 292 295 296 295 298 301 302 304 303 303 301 299 296 291 289 287 286 288 287 283 285 292 291 292 297 297 297 298 298 293 293 288 285 287 287 286 287 286 284 290 299 300 300 300 302 300 298 293 303 300 302 302 302 305
303 303 303 303 303 303 302 302 302 302 301 301 297 295 295 296 296 294 291 287 285 281 287 290 289 288 287 289 291 290 288 288 289 291 293 294 296 299 301 302 303 304 303 299 295 293 288 288 282 284 283 284 287 287 286 291 290 295 297 298 298 295 297 294 290 287 287 286 285 284 283 287 294 297 300 300 300 302 302 295 290 303 303 300 301 302 306
303 303 303 303 304 303 302 302 302 302 302 301 296 294 294 297 295 292 289 288 287 283 291 290 290 289 289 288 291 289 291 288 291 287 286 291 294 295 298 301 304 304 301 299 296 293 291 287 287 288 288 288 285 285 290 290 288 289 293 296 295 296 291 289 288 285 285 285 284 284 285 288 295 299 300 299 300 301 297 285 287 302 302 301 301 302 305
302 302 303 303 303 303 303 302 302 302 302 302 298 294 294 297 296 295 290 287 283 283 288 292 289 287 286 289 286 290 294 293 292 292 290 293 293 295 295 298 298 302 302 296 293 291 287 287 287 285 285 290 289 289 284 290 287 288 288 291 290 290 288 288 287 288 284 284 285 285 287 292 298 298 303 299 300 298 288 284 292 302 303 301 302 304 306
302 302 303 303 303 303 303 302 302 302 302 302 299 296 294 296 296 296 290 286 285 282 289 291 290 287 289 291 289 290 291 291 291 287 288 290 294 296 296 297 299 293 299 292 294 289 288 287 289 289 288 290 292 285 289 287 287 289 292 288 288 286 286 284 284 285 287 287 286 287 289 297 297 302 302 302 296 288 287 298 302 303 307 305 302 304 306
301 302 303 303 303 303 303 302 302 302 302 302 300 293 295 297 297 296 290 285 285 283 286 287 288 286 290 289 290 288 288 288 291 290 290 287 295 294 295 291 298 298 295 297 290 292 289 288 289 291 289 290 291 293 289 288 290 289 289 292 288 289 285 285 286 286 285 285 287 285 282 293 303 304 300 299 292 292 303 305 306 303 306 307 306 304 307
301 302 303 303 303 303 303 303 302 302 302 302 301 295 293 298 298 297 296 291 286 281 284 290 290 290 290 289 291 290 288 285 288 288 292 292 293 292 287 285 292 292 290 292 288 289 287 289 292 291 293 292 293 292 287 288 291 294 292 290 291 295 288 285 285 289 287 284 284 285 292 300 301 301 296 302 303 305 305 308 310 310 308 309 310 306 308
300 302 302 302 303 304 303 303 303 302 302 303 301 297 292 296 297 297 297 295 288 284 286 291 291 290 291 292 291 291 290 289 291 292 288 286 293 295 295 296 297 295 299 299 295 291 294 295 294 290 290 293 294 290 289 288 287 292 294 293 287 293 293 294 289 292 290 290 293 298 298 299 302 303 305 304 307 308 307 308 311 311 312 308 310 311 307
301 301 302 302 302 303 303 303 303 302 302 303 301 297 292 294 294 298 296 289 291 291 292 291 292 291 292 293 294 295 294 294 293 292 292 288 287 292 294 296 297 302 301 301 297 295 296 295 291 293 291 291 292 290 290 290 289 293 290 295 292 297 295 296 294 294 295 296 297 299 302 303 305 305 305 306 308 306 306 309 313 312 312 311 312 311 310
302 302 302 302 302 303 303 303 302 303 303 303 302 297 295 295 295 295 292 291 287 282 287 289 286 286 291 291 296 297 296 295 294 294 296 294 287 289 295 299 303 302 302 303 304 298 295 293 293 293 289 294 293 290 288 289 289 294 293 292 296 297 296 297 295 297 295 292 301 302 305 307 306 306 306 306 306 306 307 311 311 313 312 312 311 309 310
301 301 302 302 302 302 303 303 302 302 303 303 302 301 299 297 297 295 290 284 285 283 280 283 285 289 292 295 298 297 298 299 299 297 295 294 293 292 294 303 306 302 300 302 302 299 294 292 291 289 288 298 294 290 293 290 292 295 292 294 294 295 298 297 295 295 295 294 301 303 303 303 304 305 307 307 308 308 308 308 309 310 311 310 309 310 310
300 301 302 302 302 303 303 302 302 302 302 302 302 298 296 295 297 297 294 292 290 286 279 281 286 294 295 296 295 297 300 300 300 298 296 295 296 296 298 301 301 306 304 302 301 295 294 293 290 292 293 291 299 293 292 294 295 296 293 297 298 298 297 294 298 298 301 300 301 302 303 305 305 306 306 307 306 307 309 309 309 310 311 312 312 309 308
300 301 301 302 302 302 302 302 302 302 302 302 301 299 298 297 298 295 292 290 286 282 282 279 286 291 296 293 297 298 298 299 300 299 298 297 296 297 297 297 297 298 298 298 299 293 293 292 292 295 297 296 298 299 298 297 296 292 294 300 299 297 296 296 298 294 294 298 302 303 298 296 303 305 306 307 306 306 307 309 311 310 311 311 313 312 309
300 300 301 302 302 302 302 302 302 302 302 302 301 299 299 297 297 297 297 294 289 284 284 285 286 291 296 292 296 297 298 299 299 299 298 298 298 298 297 297 297 296 296 294 292 292 293 293 294 292 292 297 298 294 299 299 297 297 295 300 302 299 299 298 296 295 295 302 303 304 304 304 305 307 306 306 306 307 309 309 308 309 308 307 311 315 315
299 300 301 302 302 302 302 302 302 303 302 301 299 297 296 297 297 298 297 298 295 289 286 286 290 289 286 292 296 296 298 298 298 297 297 297 298 298 297 298 297 298 298 296 292 292 293 294 293 295 296 304 299 295 298 292 292 291 297 302 302 305 303 303 303 302 303 303 303 303 307 306 306 306 306 306 307 307 307 307 306 307 308 309 310 311 313
299 300 300 301 302 303 303 303 302 302 302 299 296 292 286 293 296 296 297 297 295 292 285 284 281 286 294 292 294 296 296 297 297 297 297 296 296 297 297 297 297 299 298 295 294 293 292 292 291 296 299 302 298 294 292 294 293 296 303 302 302 302 302 304 304 303 303 304 303 303 307 307 307 307 307 307 307 307 308 308 309 310 308 308 311 311 309
300 300 300 301 301 302 303 302 302 301 301 297 293 285 283 283 292 298 297 298 296 292 287 286 283 289 287 293 293 293 295 295 296 297 298 298 297 297 298 299 299 299 294 293 292 293 290 290 289 296 300 301 297 295 295 294 292 296 302 304 304 304 305 306 305 304 305 305 304 304 306 306 306 307 307 307 307 307 308 307 307 307 308 309 308 308 308
300 300 301 301 301 301 302 302 301 301 299 295 291 289 288 293 296 298 299 298 297 292 287 283 283 284 284 288 293 297 295 295 296 296 298 297 297 297 298 298 297 300 296 294 293 291 291 291 291 294 298 301 297 295 295 294 291 294 303 302 303 304 304 305 306 304 304 306 307 307 306 306 307 309 307 306 306 306 309 307 306 307 305 307 307 307 306
301 301 301 301 301 302 302 301 300 299 297 298 300 300 300 300 300 299 299 299 296 291 289 284 281 282 280 288 292 295 296 297 299 296 297 299 298 297 296 295 297 297 302 294 290 292 293 289 291 293 297 297 293 292 294 292 296 302 303 301 301 301 303 304 304 306 306 305 304 306 306 307 307 306 305 304 305 306 307 306 305 305 308 310 310 310 309
302 302 301 301 302 302 301 300 300 299 299 297 293 295 299 300 301 301 301 299 293 290 288 284 281 281 282 290 287 295 295 291 291 293 290 299 295 296 294 294 296 292 293 294 293 292 291 290 291 292 295 292 291 292 289 295 297 298 299 298 300 303 305 306 307 306 305 305 305 303 306 308 306 305 305 306 305 304 305 305 306 307 307 308 308 308 306
302 302 302 301 301 301 299 300 298 296 293 293 294 297 298 302 301 300 300 296 287 284 285 284 284 280 281 284 283 290 294 291 290 292 288 295 295 296 295 291 291 290 292 296 291 290 290 292 296 292 292 292 291 290 291 297 299 299 296 295 299 303 304 306 306 306 305 303 303 304 304 305 305 304 304 304 304 305 306 305 306 307 306 306 306 307 306
301 301 301 301 299 298 297 298 295 293 291 291 293 298 299 299 300 300 300 298 294 285 283 284 283 282 282 280 281 288 294 290 292 291 291 290 294 294 292 292 288 291 294 291 290 291 288 294 291 288 289 287 289 293 297 298 299 300 298 299 301 305 308 307 309 305 302 301 302 304 304 306 305 303 302 301 302 303 305 306 305 306 306 306 306 307 308
301 300 299 296 295 297 293 292 296 295 293 294 296 299 299 300 300 301 298 295 296 296 288 285 283 284 285 285 286 288 289 284 290 288 291 289 289 289 290 289 288 291 288 289 288 289 292 294 291 287 288 288 291 296 297 298 298 298 299 299 300 305 306 304 301 301 301 301 302 302 303 303 301 301 302 302 302 303 305 304 305 305 304 305 306 307 307
300 298 293 290 289 285 290 291 293 295 297 297 297 295 296 295 288 288 289 288 291 293 288 289 284 287 287 286 283 293 289 287 289 285 288 287 287 289 286 287 287 287 286 286 289 294 291 288 287 287 288 294 295 294 294 294 295 296 296 296 298 301 302 301 303 302 303 301 301 301 302 303 303 302 303 303 303 304 304 303 303 303 304 305 305 305 305
297 293 290 288 286 283 286 291 296 297 295 295 295 291 289 286 285 285 285 287 288 286 289 287 285 288 287 285 288 294 290 287 286 285 282 292 287 288 289 286 286 287 285 283 287 293 288 287 284 284 287 292 296 298 294 295 295 296 297 297 298 299 301 302 303 304 304 306 306 305 306 304 304 304 303 303 302 301 302 302 303 303 304 304 304 302 303
293 289 286 285 284 287 292 294 296 293 293 289 287 287 286 286 285 283 285 284 284 286 288 283 289 287 288 287 287 287 293 288 283 283 284 287 293 286 287 286 287 284 281 281 287 291 287 284 283 283 287 291 295 295 294 297 298 300 298 298 297 299 302 304 303 302 304 303 302 304 303 303 307 307 304 303 303 303 302 303 302 303 303 304 300 304 305
293 291 288 284 288 290 292 294 294 290 288 287 287 284 283 283 286 284 283 281 279 282 288 289 289 288 290 288 288 285 293 292 290 289 287 285 293 290 287 285 287 284 280 281 287 286 286 283 282 284 288 295 294 293 293 298 299 298 298 298 300 300 301 303 303 301 302 303 302 301 301 301 303 304 304 305 304 305 305 305 304 304 303 304 304 303 301
294 293 294 295 294 294 292 290 287 287 286 285 283 281 282 283 284 283 284 282 282 283 286 289 288 288 288 290 290 290 290 293 292 288 287 286 291 288 285 284 284 283 281 287 286 284 285 283 281 283 290 291 291 293 295 298 299 299 299 298 299 300 302 302 301 300 300 303 302 302 301 301 302 302 303 303 304 304 303 304 303 302 303 302 301 301 301
297 296 294 289 287 286 285 284 285 284 278 278 275 276 280 280 282 282 282 283 285 285 287 292 291 292 293 294 291 291 290 295 289 288 286 286 289 286 285 283 281 280 286 286 285 282 281 280 279 287 290 289 290 291 296 298 299 298 297 297 298 300 301 302 301 300 299 300 301 301 301 301 301 300 300 301 302 302 301 301 302 303 302 302 302 302 301
294 292 289 285 285 285 285 280 287 284 279 278 277 276 278 278 280 280 280 282 286 285 287 285 286 285 283 290 287 287 292 292 290 288 288 287 286 283 282 282 284 287 287 285 283 282 283 282 286 288 289 290 291 294 297 299 298 300 300 299 299 299 299 299 300 301 300 299 300 300 300 301 300 300 301 302 303 305 303 301 300 301 301 302 302 301 300
286 284 282 281 280 282 282 274 282 280 277 279 281 279 278 276 279 280 281 285 286 285 288 288 287 286 284 288 289 289 289 288 291 286 285 287 285 284 282 284 285 284 283 282 281 281 282 284 289 289 291 291 292 293 294 297 298 297 299 301 301 300 301 301 300 300 300 300 300 301 302 301 302 302 302 302 301 302 304 303 301 300 302 303 302 301 300
283 282 281 276 272 277 279 276 277 279 282 281 281 282 282 283 283 283 287 287 285 287 286 287 287 287 284 288 285 287 290 289 289 288 287 286 284 284 287 287 285 284 280 280 279 280 284 287 288 290 291 292 293 293 293 295 297 298 299 302 300 300 299 300 300 300 300 301 300 301 301 302 304 304 303 301 302 302 303 302 302 303 303 303 303 303 300
283 283 281 279 275 278 281 279 279 281 282 283 284 284 284 284 285 285 286 287 286 288 288 289 288 287 285 286 287 288 289 287 286 288 286 285 283 286 287 284 281 279 279 278 278 280 283 287 290 292 292 293 293 294 294 296 298 299 299 300 300 300 299 300 300 301 300 300 301 301 302 302 302 302 304 304 303 302 301 302 302 302 304 305 303 302 301
281 281 280 275 273 278 279 281 283 284 284 284 285 285 285 285 284 285 287 288 288 288 287 287 286 287 286 290 287 286 288 289 286 287 288 287 288 284 282 281 280 280 280 281 282 285 288 289 291 291 292 292 292 292 294 297 299 300 299 300 301 300 300 300 301 301 300 302 302 302 301 302 303 304 306 306 304 302 302 303 302 302 302 302 301 301 301
282 281 280 277 278 278 280 283 282 282 283 283 284 284 284 284 284 285 287 289 288 288 289 287 286 285 284 288 286 286 285 289 284 285 288 285 284 280 280 278 278 279 283 284 287 288 289 291 291 292 292 292 292 293 295 297 298 299 300 300 302 301 301 302 302 301 299 301 301 301 301 301 301 302 303 304 306 304 302 302 303 302 303 303 303 303 303
282 280 280 280 280 280 282 282 281 280 282 283 283 283 284 284 284 286 289 288 289 289 289 288 288 285 286 286 284 285 284 287 286 286 284 283 283 282 280 279 279 281 285 289 289 290 291 291 291 291 292 292 292 292 293 294 293 295 298 299 300 300 300 301 301 300 299 300 301 302 301 300 302 303 305 306 305 303 302 302 303 303 302 302 303 304 305
283 282 281 283 281 280 282 278 278 279 280 282 282 283 284 283 284 285 290 288 288 287 286 284 283 282 283 283 282 280 283 288 285 284 284 284 286 284 283 281 284 286 289 290 290 290 291 291 291 290 291 291 291 292 292 293 293 294 295 297 298 300 300 300 301 301 299 298 299 295 301 302 302 301 300 301 302 303 303 301 301 303 304 303 302 303 303
278 278 280 281 283 283 283 283 283 282 282 283 283 284 285 284 286 287 290 289 287 284 283 285 283 281 280 279 281 283 285 284 283 284 282 285 287 285 284 285 288 289 289 290 290 290 290 291 291 290 290 290 291 292 292 293 294 295 295 296 297 298 300 301 301 301 300 299 298 298 299 299 300 300 300 302 302 303 303 304 304 302 303 304 304 304 304
Wind_Speed
20 20 20 22 22 22 23 26 25 23 23 12 10 7 3 4 1 1 8 7 7 2 4 4 3 4 4 3 8 8 8 6 7 8 6 5 3 4 4 2 2 4 2 1 3 2 3 4 6 4 6 7 11 4 14 15 8 9 3 1 4 3 2 3 5 6 5 2 1 7 10 10 5 6 3 10 13 16 13 7 4 5 3 4 2 2 4
20 20 20 20 21 21 23 24 24 23 21 10 7 3 2 3 3 2 1 6 4 3 4 4 4 4 6 6 12 7 8 6 8 6 4 2 1 4 2 3 8 5 3 3 4 2 3 3 4 2 2 3 5 7 11 15 10 10 5 7 6 3 2 1 8 6 5 5 5 6 5 10 9 10 9 15 12 13 1 6 1 7 13 10 4 7 4
20 21 21 20 21 21 22 23 21 22 21 16 5 3 3 4 3 2 1 5 5 3 3 3 6 4 7 7 10 6 3 7 10 8 7 5 7 4 5 7 4 4 4 6 7 9 9 3 2 2 1 3 1 10 12 15 10 10 6 8 6 2 2 3 6 10 9 10 11 14 16 18 12 9 10 10 13 11 8 10 6 11 3 9 10 7 6
20 20 21 20 21 21 22 20 20 21 21 19 6 2 3 3 3 2 0 4 5 6 6 6 5 6 4 7 3 3 6 2 5 8 10 9 7 9 8 5 3 5 3 5 6 4 6 9 1 1 2 3 2 4 14 15 14 11 12 10 7 2 1 2 1 6 10 12 7 5 6 4 7 7 10 9 8 12 8 2 4 12 3 5 8 4 7
20 21 21 20 21 21 21 20 20 21 22 20 4 2 2 2 1 3 4 2 6 7 5 5 3 3 1 4 4 5 4 7 6 5 3 2 5 3 7 4 2 2 1 3 4 5 4 8 7 8 5 2 1 1 11 14 16 13 11 9 4 1 2 5 6 4 6 0 1 5 14 18 18 15 13 10 10 8 9 9 11 7 5 12 5 3 8
19 20 20 21 21 21 21 20 19 20 22 23 2 1 3 1 1 2 2 4 3 5 1 1 7 9 3 3 1 5 6 5 4 2 5 4 4 3 1 7 9 4 5 2 1 2 4 4 3 2 3 2 0 4 5 7 9 14 7 7 4 3 3 1 4 4 5 5 7 5 9 15 12 15 13 13 12 11 13 10 4 11 12 11 6 7 7
18 19 19 20 21 20 20 20 18 18 21 16 3 4 3 3 3 2 5 3 3 5 10 12 10 11 5 3 2 4 3 7 4 3 5 2 2 6 5 4 5 8 8 6 5 4 1 1 2 2 1 2 1 4 5 3 7 14 5 5 3 2 2 3 4 6 7 9 11 10 11 10 11 12 13 15 14 14 14 10 6 10 5 3 5 8 12
17 18 19 19 20 20 20 19 17 18 18 9 7 9 4 4 4 4 5 5 8 8 7 6 7 6 3 2 2 2 3 6 8 4 3 4 5 3 6 12 2 5 5 4 3 4 2 3 3 0 2 5 1 5 2 7 9 11 9 7 0 4 1 3 1 2 7 3 4 9 13 11 12 12 12 12 14 12 12 11 7 4 7 1 2 3 8
17 18 19 19 19 18 18 18 17 15 13 7 8 5 5 3 3 4 6 8 5 6 5 7 6 5 3 3 4 5 5 9 11 13 9 12 6 5 6 5 11 8 2 5 10 12 8 10 12 9 6 6 2 1 1 3 8 11 6 6 2 5 2 0 1 4 5 2 2 7 9 9 10 11 12 13 14 13 10 11 7 9 9 7 3 3 7
15 17 17 18 18 17 17 18 16 13 9 5 5 5 6 6 3 4 3 4 5 4 5 7 4 2 2 4 6 4 10 10 10 8 3 3 9 9 7 7 7 14 11 9 9 9 9 12 12 8 9 9 10 7 7 4 6 7 6 2 3 4 2 2 0 2 3 4 2 8 9 6 1 8 13 15 13 11 7 3 5 13 12 7 7 10 7
14 15 17 17 17 16 15 16 15 13 6 8 7 5 7 5 5 5 2 4 3 1 7 4 2 4 5 5 9 7 9 10 6 3 4 4 4 2 7 9 7 11 11 8 5 2 7 14 11 4 6 8 8 5 4 6 4 6 7 3 1 2 4 0 1 2 2 6 1 10 8 5 7 1 3 13 15 12 11 10 9 9 8 7 8 9 3
15 17 17 17 16 15 14 14 15 14 6 2 1 4 4 6 5 3 3 4 6 3 4 6 6 6 10 12 7 11 11 12 11 6 10 8 12 10 8 6 2 6 6 6 7 11 11 3 2 1 2 6 6 4 5 2 4 3 3 7 4 4 1 1 1 1 2 3 2 6 4 6 3 1 2 5 6 13 16 12 14 12 11 5 6 8 10
17 18 18 17 16 14 14 13 13 12 9 2 2 5 4 5 3 3 3 4 5 6 7 7 6 11 13 12 13 9 9 11 11 11 9 10 9 5 3 3 4 8 7 14 15 10 3 2 3 2 3 2 4 6 6 6 5 3 2 2 7 2 0 1 0 0 0 0 1 3 4 3 2 4 3 2 6 2 3 8 10 8 14 15 11 10 5
18 18 18 17 16 13 13 13 13 11 11 6 3 3 4 4 3 3 3 4 8 5 6 13 9 5 7 11 10 13 11 9 8 3 2 3 6 9 7 5 7 7 10 11 8 4 2 2 0 2 1 2 6 4 3 7 5 1 3 2 2 9 6 0 3 2 2 0 0 2 5 2 2 3 4 8 8 10 12 9 11 11 10 10 11 8 3
16 17 18 17 15 13 11 12 12 11 11 7 2 2 3 3 3 2 3 3 7 11 6 5 5 8 10 10 8 10 7 8 10 6 4 3 5 6 6 11 10 11 9 4 4 2 1 0 3 2 1 1 3 2 2 3 1 2 2 4 5 5 2 1 2 1 0 2 0 1 2 3 2 1 2 0 2 5 3 4 9 4 6 10 11 8 5
15 17 18 17 15 13 12 11 12 12 11 8 1 2 2 2 2 2 3 3 5 7 1 2 8 8 8 8 8 5 6 7 8 8 6 2 5 10 5 6 10 7 3 1 0 1 1 0 1 1 1 0 1 3 3 4 2 5 4 3 8 6 7 3 0 2 1 1 0 0 1 1 0 0 2 2 1 4 5 3 8 2 6 9 10 9 6
16 16 17 17 15 14 13 11 12 11 10 7 3 2 2 1 2 3 3 3 3 9 7 12 9 6 6 6 1 2 3 5 8 6 6 8 9 8 12 13 8 2 7 2 3 1 1 2 0 1 0 1 1 1 4 3 7 2 5 1 3 4 3 0 0 1 1 1 1 2 2 1 3 3 3 1 3 4 6 7 4 4 2 5 8 9 8
18 18 17 17 15 14 13 12 12 12 10 8 1 1 1 1 1 0 2 3 4 8 4 2 5 3 3 3 7 5 3 4 3 4 5 7 6 5 11 9 10 4 5 4 3 1 1 1 1 1 1 0 1 1 5 3 7 6 6 1 3 2 0 1 3 1 2 5 0 3 3 3 5 4 3 3 1 3 7 6 1 2 2 3 6 7 7
19 17 17 16 15 14 13 12 11 12 10 10 2 2 2 3 3 2 1 3 4 8 4 5 4 9 10 7 9 6 4 5 6 5 6 5 1 7 11 5 3 6 7 3 2 2 2 1 1 1 1 1 1 1 0 3 4 2 6 2 0 1 1 0 1 2 3 2 3 2 3 5 3 3 3 3 4 5 3 2 1 2 3 2 6 6 6
18 16 16 16 15 14 13 12 11 12 11 10 5 2 3 2 3 3 3 5 3 11 14 14 10 12 4 4 4 5 7 7 4 4 2 5 4 14 5 1 1 3 4 3 2 1 2 2 2 1 0 1 1 1 0 2 3 4 5 3 3 4 2 1 2 0 1 0 2 2 4 1 1 7 1 2 2 1 2 2 1 4 2 3 3 5 5
18 16 16 16 16 15 13 12 11 12 13 11 9 3 4 2 3 4 5 5 7 10 10 1 4 11 9 11 10 10 8 11 7 5 4 5 7 4 3 2 6 4 2 2 3 2 1 2 3 2 1 2 2 2 1 1 2 4 1 5 4 4 2 1 2 4 1 0 0 1 1 1 1 1 0 2 2 1 1 2 2 1 1 2 1 4 5
18 16 16 16 16 16 15 13 12 12 13 12 11 1 4 3 3 3 5 5 8 11 9 9 10 15 15 16 17 15 17 18 19 11 8 7 3 4 4 4 5 2 2 2 2 0 1 2 2 2 2 2 1 0 0 2 4 2 1 2 4 6 3 3 1 3 1 0 0 1 2 5 2 3 1 3 5 3 2 1 2 3 2 0 2 1 3
17 17 16 17 17 16 16 14 13 12 13 13 9 3 6 4 2 3 4 7 8 12 14 16 13 14 15 17 19 18 17 16 16 11 10 7 5 3 6 4 4 2 1 0 4 2 3 3 2 2 2 2 1 0 2 1 1 1 2 2 1 3 2 3 1 3 3 3 4 3 3 3 2 3 4 5 3 1 2 2 3 2 3 2 2 3 2
17 16 16 17 18 17 16 15 14 12 13 13 9 7 5 3 2 2 2 5 4 10 8 6 3 3 1 6 1 6 8 10 14 15 10 10 5 3 3 5 3 1 1 1 1 2 3 3 2 2 2 1 2 1 1 1 1 1 1 1 1 1 3 1 2 0 1 0 1 1 1 2 2 3 2 3 3 2 1 4 1 3 3 2 2 3 1
16 16 17 18 18 18 16 15 14 13 13 13 11 6 4 4 3 3 5 5 3 3 6 8 7 13 9 7 9 9 10 9 8 10 10 13 14 8 3 2 4 1 4 3 1 2 0 2 1 1 2 1 1 1 1 1 1 1 1 1 0 2 2 2 2 2 1 0 3 2 3 5 4 2 2 3 5 5 5 3 1 3 2 1 0 3 3
17 17 18 17 17 16 16 14 14 13 12 12 12 9 7 9 2 4 5 5 3 3 5 6 9 7 7 13 10 6 5 6 9 12 14 17 18 15 10 5 5 2 2 2 5 4 3 2 1 1 1 1 1 1 1 1 2 1 1 0 1 1 3 1 3 2 2 2 4 3 2 1 2 1 2 2 3 4 4 5 5 5 5 6 4 4 3
17 17 19 17 17 17 16 14 15 13 11 13 10 7 7 8 5 7 6 4 2 4 4 7 8 10 6 15 16 8 6 6 7 10 12 14 15 13 11 10 8 6 5 5 1 1 1 2 1 3 3 2 1 2 1 1 2 2 1 2 1 1 2 1 2 1 0 2 3 5 3 2 1 2 4 4 2 1 2 1 4 4 5 5 6 6 4
17 18 19 18 18 18 16 15 15 13 12 13 8 6 6 8 6 7 8 9 7 3 4 7 9 15 15 14 7 5 8 8 8 9 10 12 14 12 12 12 9 6 4 2 3 2 2 2 4 0 1 2 1 1 2 2 1 2 2 3 2 1 2 4 1 1 1 2 3 2 3 3 1 1 1 2 1 0 3 4 3 2 0 2 4 6 5
17 17 18 18 17 18 17 16 15 13 12 10 7 8 7 1 2 4 8 8 7 4 5 7 10 8 4 9 12 10 4 4 6 8 9 10 12 12 13 12 10 7 5 4 2 1 2 2 0 2 3 2 2 2 1 1 1 1 2 2 3 3 2 4 1 2 4 4 2 4 1 4 3 2 2 1 0 1 5 2 0 1 2 2 1 2 4
18 18 19 19 18 19 18 17 16 12 12 6 5 4 3 1 2 2 4 7 6 3 2 5 7 4 5 5 9 7 9 7 7 8 10 8 9 10 10 10 8 8 6 3 2 2 1 1 1 2 2 1 2 0 1 0 1 3 3 3 4 3 3 4 2 3 2 1 1 2 2 6 4 4 2 1 1 1 4 3 2 2 2 2 2 3 3
18 19 20 20 21 20 19 19 17 14 11 3 3 3 1 0 2 1 5 5 5 3 2 2 8 7 8 4 4 9 11 14 9 6 6 6 6 6 6 6 4 8 5 2 1 2 1 2 1 1 1 1 1 1 1 1 2 3 2 1 2 3 3 3 3 3 0 1 2 2 3 4 2 4 5 3 1 0 3 2 2 2 2 3 5 4 3
19 19 19 21 21 22 21 21 19 15 7 6 6 4 2 2 1 4 5 4 4 3 2 6 7 2 4 6 4 4 8 10 3 4 2 2 2 2 5 8 4 8 4 2 1 1 2 1 1 2 1 0 1 1 1 1 1 4 4 1 1 3 3 4 3 1 1 3 5 7 6 5 1 1 4 1 2 3 3 4 1 2 2 3 3 4 5
19 20 21 21 22 22 22 22 19 12 9 8 11 13 13 9 5 5 6 5 3 2 1 1 4 4 3 6 9 5 4 4 1 5 4 1 1 2 2 1 1 4 2 1 1 1 1 1 0 0 1 1 1 1 2 3 5 5 5 2 1 3 3 3 2 3 2 1 5 2 4 4 3 3 4 2 2 1 1 3 2 1 1 3 5 4 5
19 20 21 22 23 23 21 18 8 3 1 2 3 4 4 5 5 10 7 4 2 1 0 1 4 4 6 5 7 2 5 5 4 3 4 1 0 1 1 2 1 1 2 4 1 0 0 0 1 0 1 0 1 0 2 5 7 7 6 4 0 1 2 3 3 2 1 3 4 5 3 5 6 4 4 3 3 2 1 2 2 4 5 5 4 4 2
20 21 21 22 22 20 10 2 3 2 1 1 2 2 1 3 3 3 7 6 3 1 1 2 1 4 5 4 2 5 3 5 4 2 2 2 2 2 1 1 0 1 1 1 0 0 0 1 2 1 2 1 0 2 2 6 6 4 3 5 2 1 5 4 5 5 1 4 2 1 4 7 8 6 4 2 2 1 4 4 3 5 6 4 3 4 4
21 22 21 21 17 3 3 2 2 1 1 0 1 0 5 11 10 6 8 4 1 1 1 1 1 3 1 5 6 4 4 5 1 3 3 3 3 2 0 1 1 1 2 0 1 1 1 2 1 2 1 0 3 4 5 5 4 5 4 3 4 6 5 5 6 6 5 3 2 3 3 5 7 5 3 2 1 1 2 4 4 4 5 4 3 2 2
20 20 20 13 2 2 2 1 0 1 1 3 8 14 16 6 3 3 4 3 2 2 3 1 3 5 4 5 2 4 5 5 5 4 2 2 2 1 2 0 1 0 0 0 0 0 1 1 0 0 2 2 4 6 6 4 5 5 5 2 4 6 6 4 7 2 5 2 3 4 3 6 7 3 3 3 1 0 3 5 4 5 6 4 2 2 2
18 14 4 3 3 1 0 0 1 3 10 12 9 3 2 2 0 1 0 1 2 3 2 2 7 5 2 2 7 2 4 3 2 3 3 0 1 1 0 0 0 0 2 1 0 1 1 1 0 1 3 5 6 6 5 4 5 4 4 3 4 5 3 5 6 4 3 2 4 3 4 3 5 3 3 3 2 3 2 1 1 1 1 1 1 1 1
9 4 3 2 1 1 1 0 3 12 9 3 2 1 1 0 0 1 1 1 0 2 1 4 6 3 5 7 9 1 4 6 4 1 1 0 1 3 1 1 0 0 0 1 0 1 1 0 0 1 3 4 3 1 2 3 4 4 5 4 4 4 5 6 7 7 7 3 4 8 7 6 7 6 3 4 2 1 0 0 0 0 1 1 1 1 1
3 6 3 3 1 2 1 3 8 7 2 0 0 0 1 0 1 1 1 1 2 1 2 4 4 5 7 7 6 6 2 2 1 2 1 5 2 1 0 1 0 0 1 1 1 2 1 1 0 0 3 2 2 1 4 3 3 3 3 2 3 4 6 8 8 4 3 2 1 2 2 0 2 6 7 5 4 4 3 2 1 0 0 0 0 1 3
2 3 2 1 3 2 5 9 5 1 0 1 0 1 1 1 1 1 2 1 2 3 2 2 0 2 3 4 3 7 2 1 1 1 1 3 0 1 1 1 0 1 1 1 0 0 1 1 0 1 2 1 2 4 5 3 2 3 3 2 1 2 3 4 3 1 2 1 2 3 2 2 2 3 5 6 5 4 3 3 3 2 2 2 1 2 3
3 5 6 6 7 8 6 2 0 0 0 0 1 2 1 1 0 1 1 1 1 1 0 2 4 3 6 4 5 3 4 2 1 0 0 2 0 1 1 1 1 0 1 0 1 0 0 1 0 2 3 5 6 4 3 3 3 2 3 2 2 3 4 4 4 2 2 1 2 2 1 1 2 3 3 4 4 3 3 3 3 2 2 2 2 3 3
8 5 1 2 2 1 0 1 0 1 1 1 2 1 1 1 0 0 1 1 0 0 2 2 2 4 5 1 3 5 4 1 1 1 1 2 0 1 0 1 1 1 1 1 0 1 0 1 2 2 4 7 5 5 5 4 5 3 2 2 2 2 3 4 5 4 3 3 3 3 3 3 3 2 2 3 4 5 3 1 2 3 2 3 3 3 3
1 1 0 1 1 1 0 0 0 0 1 1 1 0 1 1 0 2 2 2 2 2 1 7 8 8 6 2 3 3 1 2 1 1 2 1 0 1 0 1 1 1 1 0 0 1 1 2 2 3 6 7 4 4 4 5 5 4 3 4 3 4 4 4 4 5 5 3 4 3 4 4 5 3 3 3 2 3 3 3 2 3 3 4 4 4 3
1 2 2 1 1 2 0 1 1 1 1 0 0 1 1 1 2 1 2 0 1 7 7 5 6 6 9 6 2 3 1 1 1 1 2 0 1 0 0 1 1 1 0 2 0 1 1 1 1 2 7 9 8 7 6 5 4 4 4 2 4 3 2 5 4 4 3 3 3 2 4 3 4 4 4 3 2 2 3 4 4 4 4 4 4 4 2
2 1 2 2 3 2 1 1 1 1 0 1 1 1 2 2 2 4 3 0 4 7 8 9 8 6 9 4 2 2 0 1 1 2 1 0 1 1 0 0 0 2 0 0 0 2 1 2 5 7 8 9 9 9 7 5 4 3 4 1 1 2 2 4 4 4 3 3 2 3 3 3 4 4 4 3 2 3 3 4 3 3 4 4 4 4 2
1 1 1 1 0 3 0 0 0 0 1 2 1 1 2 4 4 6 5 2 6 7 8 7 7 6 5 3 1 2 1 1 2 1 0 1 1 1 0 1 2 0 1 2 2 3 2 4 6 8 9 10 10 8 6 5 3 3 2 0 1 1 1 3 3 5 3 3 4 4 3 3 3 2 3 5 4 3 3 3 3 2 2 3 3 3 3
2 1 0 0 2 1 1 0 0 3 2 2 1 2 3 2 3 4 2 3 5 6 7 7 5 1 2 2 1 3 2 0 2 1 1 1 0 0 1 0 1 1 1 2 1 2 4 6 9 11 10 9 8 8 6 4 3 3 3 3 0 2 2 3 3 3 3 4 4 3 3 3 3 3 3 4 4 3 2 2 3 2 3 4 4 3 3
2 2 0 1 1 1 1 1 2 4 1 0 2 3 2 4 5 5 6 3 4 7 7 5 2 1 3 1 1 1 2 0 2 1 1 1 1 1 0 2 2 2 0 0 3 4 6 9 9 10 10 9 7 5 5 4 4 4 3 3 2 2 1 1 2 3 2 2 2 3 3 2 2 3 3 2 3 3 2 2 3 2 2 4 4 3 2
1 2 1 1 2 1 2 1 1 3 2 3 3 3 2 3 5 6 3 5 6 7 5 1 2 1 2 1 1 0 1 1 1 0 1 3 2 0 1 1 2 2 0 1 2 4 5 6 7 8 9 9 9 7 7 7 5 4 3 4 3 2 0 1 1 1 0 1 3 3 3 3 3 3 3 3 2 3 3 2 3 2 2 2 2 2 1
0 1 2 1 1 1 2 3 2 4 6 6 5 5 4 6 5 6 2 4 6 5 1 2 2 2 2 1 1 2 0 1 2 2 2 2 0 1 1 2 1 1 1 1 1 2 5 6 6 6 8 9 9 9 8 7 6 5 4 3 4 3 2 1 2 2 1 1 0 3 5 4 2 2 2 2 3 3 2 2 2 2 2 2 3 2 1
1 0 0 1 2 3 3 3 3 5 6 6 5 3 1 6 5 5 3 4 4 2 2 1 1 1 1 1 1 2 3 3 2 0 3 1 0 1 1 1 3 3 3 2 4 5 5 5 6 7 8 8 9 9 9 8 7 7 7 6 5 4 4 4 4 3 4 4 4 4 5 5 3 2 1 4 4 3 3 3 2 3 2 1 1 1 0
Wind_Direction
351 352 351 355 355 355 356 356 355 353 349 353 356 329 356 26 268 12 160 177 185 198 237 212 205 225 253 305 268 257 271 267 287 296 291 303 227 250 235 250 285 259 243 306 294 256 266 215 208 211 189 194 207 154 179 176 170 184 199 212 194 165 246 147 93 74 62 47 11 144 155 153 162 215 164 172 192 197 210 207 96 194 130 222 189 232 269
352 353 350 351 354 354 356 356 356 354 354 347 328 322 332 310 302 331 121 193 226 250 283 282 241 250 268 256 268 260 271 277 290 268 269 257 287 244 262 213 205 264 209 264 279 290 310 198 222 218 174 218 187 160 189 178 187 182 189 193 157 183 234 223 124 138 129 101 125 148 181 187 204 194 188 197 198 187 112 95 125 209 218 226 213 235 234
355 354 352 351 353 355 356 357 354 352 349 352 335 319 308 282 237 251 245 195 227 242 234 262 290 283 296 302 296 309 261 229 234 253 273 236 248 258 238 219 133 252 257 259 262 265 245 305 262 328 182 223 94 187 172 196 193 196 145 192 146 240 166 181 148 151 166 170 177 183 185 197 193 198 181 200 184 143 149 190 172 215 149 200 227 237 260
355 354 354 352 354 356 356 358 355 351 347 352 344 319 300 4 353 281 143 199 231 252 259 267 279 298 323 309 291 286 296 271 236 235 265 242 252 251 275 278 249 251 229 252 247 263 211 211 286 293 220 244 173 190 183 182 211 174 172 176 153 201 177 214 192 176 181 192 183 24 58 107 195 189 186 184 186 171 180 95 185 211 136 204 221 230 254
354 356 355 354 356 359 357 2 358 352 346 353 339 276 225 306 9 335 330 278 225 249 265 272 288 295 51 289 347 308 287 288 301 174 262 180 208 248 220 214 156 279 236 270 312 264 277 222 262 255 243 239 330 291 184 191 206 165 184 184 148 132 216 218 217 220 243 341 284 160 178 183 197 191 193 174 153 169 172 188 205 119 132 233 164 172 212
353 355 356 356 357 360 359 3 4 355 350 346 332 38 359 357 35 22 39 311 295 317 280 21 307 295 201 250 342 287 310 323 315 269 226 273 208 256 215 211 232 201 222 122 280 243 216 178 211 277 230 282 180 109 192 203 182 181 197 158 200 184 240 68 161 236 248 227 215 206 212 206 189 192 179 178 168 172 192 199 145 167 210 225 122 160 202
351 353 355 356 358 359 -0 7 8 2 352 344 17 41 8 38 327 285 9 306 279 258 291 309 295 297 266 235 254 273 265 298 285 271 312 258 237 192 280 225 209 198 223 218 253 255 331 335 190 276 38 261 155 108 112 263 192 198 177 184 198 186 270 196 194 269 255 232 228 205 208 206 188 190 179 181 173 190 193 194 183 202 219 249 213 207 226
350 351 353 358 2 1 4 12 13 6 353 347 43 47 15 26 347 328 324 254 272 277 285 284 303 308 313 318 252 222 288 299 317 307 226 292 302 151 251 280 225 211 211 202 245 264 311 304 308 62 332 349 229 136 204 146 191 196 196 187 231 186 223 111 153 280 276 249 231 208 200 193 195 190 182 176 185 188 197 201 189 189 253 296 12 262 255
353 349 347 353 4 4 6 14 17 11 359 21 24 41 32 321 308 309 318 312 281 280 285 310 312 313 312 341 352 311 294 307 328 305 263 238 256 186 247 303 315 310 211 213 233 241 248 262 249 254 271 274 29 25 153 192 159 191 195 196 129 193 241 83 265 292 283 77 251 181 190 186 198 190 187 182 180 189 189 208 169 180 207 202 131 237 241
350 351 348 348 359 6 8 12 19 17 16 47 358 13 349 341 318 316 296 287 299 315 305 304 287 286 354 339 323 335 299 298 319 318 288 267 244 249 246 262 289 297 304 292 257 235 228 240 253 249 249 255 270 261 267 289 176 159 189 79 154 184 199 243 324 278 282 348 329 139 131 128 270 238 206 185 189 188 176 198 160 200 194 184 204 232 223
345 349 349 349 352 4 8 12 14 22 23 36 9 354 350 350 330 328 296 287 274 311 333 302 326 292 328 324 308 294 278 295 308 302 302 302 277 223 256 265 278 292 296 277 312 356 286 274 279 258 242 241 243 247 270 248 258 186 152 126 84 161 204 187 120 301 299 354 113 134 133 167 215 214 188 176 182 184 175 192 192 211 178 206 213 233 239
341 347 345 349 352 359 8 10 12 21 41 57 26 340 337 336 317 274 306 316 295 328 335 290 295 304 315 310 309 297 302 309 306 273 262 272 286 299 276 259 244 287 248 263 306 323 293 266 171 178 223 227 223 233 216 231 169 243 196 157 155 138 143 133 140 270 275 5 238 134 170 216 53 295 253 202 201 183 183 192 198 197 209 241 267 251 231
339 342 343 347 352 359 5 9 10 10 22 10 26 353 331 329 297 297 291 291 282 322 328 298 298 293 287 296 309 289 290 291 289 290 261 264 288 308 247 244 210 255 296 316 325 333 336 294 327 271 181 171 164 162 100 106 111 104 347 183 132 160 76 121 231 149 247 196 166 156 209 3 25 35 80 145 92 88 183 229 220 207 201 201 217 231 225
340 338 338 341 351 -0 5 12 359 7 10 7 349 346 323 340 343 317 316 321 292 278 286 293 282 281 320 312 305 301 305 308 321 235 341 230 258 281 280 223 243 278 302 314 309 330 292 83 5 0 31 82 115 98 34 84 48 80 76 4 103 123 98 89 307 104 326 298 254 258 319 339 132 131 167 177 162 166 177 197 225 197 205 194 218 219 184
339 335 333 337 349 353 4 11 352 359 8 357 320 308 335 357 328 305 306 285 294 293 258 247 337 330 324 308 319 321 325 332 344 343 295 254 266 235 260 289 293 296 304 309 317 31 68 318 90 221 344 92 132 128 180 117 239 74 16 32 54 57 11 129 312 0 115 275 335 357 161 188 171 286 16 4 352 96 87 174 220 172 197 204 205 211 179
337 335 329 334 342 347 358 3 350 353 359 356 314 325 328 9 291 317 304 301 305 302 258 266 351 319 312 306 309 318 324 325 335 308 309 261 257 307 276 274 302 302 283 205 57 335 1 296 187 96 59 0 301 122 158 119 53 336 32 32 77 67 91 131 331 303 337 66 55 295 167 30 1 134 157 99 129 156 158 181 224 206 173 185 194 212 196
337 334 330 329 336 342 351 355 349 354 355 0 344 315 8 53 24 345 312 298 236 249 311 315 300 278 281 294 312 337 342 333 345 353 335 329 331 313 303 330 315 327 338 311 358 341 28 53 93 19 7 350 164 95 91 123 123 103 334 52 22 63 29 5 335 205 235 57 134 244 226 24 21 283 316 339 139 184 155 198 215 166 201 173 185 204 191
334 331 328 327 332 339 343 353 345 349 356 354 300 342 265 187 158 250 287 265 299 282 257 302 11 314 316 352 310 304 295 300 296 300 251 287 298 322 332 334 339 1 355 359 335 42 49 49 36 59 86 334 333 246 166 136 143 149 174 185 226 277 199 49 265 287 143 168 161 343 304 264 257 288 325 91 240 196 177 202 123 16 278 196 197 212 200
330 329 327 325 328 332 337 347 347 340 350 350 334 231 203 220 154 179 299 271 246 263 226 308 345 274 274 290 257 271 272 290 298 298 303 312 347 324 301 292 331 342 1 349 349 31 6 70 207 8 295 75 335 131 32 167 158 114 98 118 3 319 10 73 71 217 211 199 160 145 287 276 298 292 333 243 159 156 208 75 313 258 284 212 206 220 206
326 325 326 324 325 328 332 343 342 333 339 349 338 284 279 195 182 176 293 303 266 270 279 267 249 256 247 244 283 286 308 293 236 245 277 285 354 352 327 41 49 344 313 352 44 19 355 5 352 300 266 316 44 296 323 18 316 146 134 212 209 184 153 237 244 151 15 97 108 154 167 253 67 316 348 134 292 54 19 299 208 216 293 286 242 228 204
323 323 328 324 322 327 326 334 337 330 330 337 334 295 307 187 173 202 196 259 290 298 296 305 211 237 248 255 248 260 262 260 269 278 274 279 318 320 3 345 321 341 329 6 3 10 25 332 359 329 336 279 11 272 137 93 113 313 131 175 199 178 182 209 241 217 255 72 302 74 284 235 140 268 33 298 318 344 260 274 41 82 248 282 266 237 206
321 319 323 322 323 324 325 326 329 328 328 334 330 261 287 193 213 189 211 205 252 245 256 290 296 280 264 257 259 249 246 248 254 248 275 294 276 260 303 307 288 224 302 318 316 303 180 318 242 323 328 337 224 297 327 171 154 115 342 157 184 209 207 184 280 199 187 106 231 288 238 263 262 204 280 269 285 263 197 277 338 2 32 199 312 68 180
319 317 319 321 321 322 325 324 324 330 324 330 330 298 298 291 223 213 180 256 255 270 275 272 267 268 270 260 246 239 233 234 248 252 232 238 284 233 227 213 267 219 295 89 344 285 315 323 316 340 274 207 307 316 182 295 102 250 155 194 9 38 94 114 171 250 249 258 260 320 281 263 273 181 220 257 285 245 180 46 12 14 333 318 355 351 126
320 318 316 316 316 318 322 323 325 325 326 326 325 314 302 237 201 136 250 249 285 305 280 216 313 294 248 315 152 195 211 230 226 230 210 201 229 279 232 234 254 296 209 193 163 315 317 285 295 32 304 314 225 307 356 79 46 169 246 165 209 183 144 137 246 5 168 180 127 207 282 298 10 355 341 244 252 256 122 76 13 351 1 358 356 341 358
318 318 316 315 314 314 318 319 322 323 325 323 321 303 275 280 161 201 275 303 309 15 302 312 269 255 284 276 269 259 214 213 196 202 194 206 219 226 256 63 208 291 300 1 69 344 156 286 348 190 271 30 297 337 144 299 88 178 306 70 232 168 219 151 224 216 210 226 159 249 294 296 309 297 338 4 352 21 50 72 26 323 309 204 86 219 154
318 317 316 315 316 315 316 318 319 319 320 314 317 309 302 291 231 188 237 246 235 246 282 304 287 301 312 310 289 252 275 226 205 196 199 204 212 228 250 308 291 60 16 352 351 316 287 257 207 232 314 344 145 306 275 171 322 287 285 24 2 94 169 212 173 184 263 267 273 274 285 6 16 335 282 311 329 351 27 32 16 337 347 353 21 47 18
316 317 316 315 317 314 316 317 315 315 315 317 314 307 289 284 226 211 206 191 245 278 209 261 273 287 328 303 288 302 255 228 215 206 209 212 219 227 239 251 267 295 309 304 11 219 241 250 245 266 189 277 181 241 286 294 251 273 267 262 155 201 201 133 181 151 223 151 160 165 147 157 176 7 347 336 348 316 81 71 79 6 350 350 354 14 18
315 314 314 313 315 315 316 314 312 316 318 318 314 298 273 267 252 210 210 208 195 270 297 290 305 296 303 269 263 254 264 247 226 220 216 217 215 219 223 232 235 242 226 214 262 212 219 263 281 173 243 261 255 241 157 235 251 220 217 252 183 322 189 179 177 159 32 270 208 195 78 60 49 164 325 300 300 93 89 73 36 60 294 316 336 358 19
310 312 312 311 313 315 313 312 313 317 319 326 327 310 289 238 311 217 213 205 220 271 286 276 271 281 303 317 312 297 265 208 224 215 220 218 212 211 218 219 214 211 209 245 283 294 247 238 185 246 287 187 205 296 310 301 354 313 298 143 177 249 187 204 203 202 278 282 270 183 251 129 156 199 190 127 113 127 85 46 355 318 350 346 330 352 10
310 312 313 312 311 313 315 315 318 319 324 334 342 334 324 125 102 141 180 185 186 203 279 319 320 281 323 310 287 300 299 271 244 241 238 223 212 210 213 202 210 196 204 211 213 245 234 271 256 257 272 282 260 51 280 102 290 285 296 276 263 283 252 261 245 235 338 39 230 185 109 100 100 118 108 137 255 284 97 71 20 24 36 5 28 31 28
310 310 310 311 310 311 313 313 312 312 314 310 336 306 323 326 60 119 165 176 172 202 258 227 264 302 302 240 281 292 303 307 307 295 253 236 222 210 199 170 194 172 198 211 233 237 100 237 223 272 134 285 175 250 263 189 292 298 284 326 330 287 266 271 230 218 134 107 136 161 101 91 128 127 85 48 57 300 103 91 32 39 37 69 55 46 31
312 309 308 308 307 306 306 307 309 310 290 251 217 187 162 74 105 154 163 159 162 235 298 316 310 303 300 298 265 268 289 287 298 299 257 181 141 122 156 180 176 188 190 187 217 154 225 227 191 268 205 134 75 159 139 237 251 256 266 84 260 289 299 319 317 152 183 186 168 124 105 115 0 98 129 136 35 20 77 98 72 58 61 78 92 72 60
310 309 307 307 304 303 306 311 311 301 273 240 231 255 273 257 206 165 170 177 243 260 148 245 260 307 301 295 316 291 264 293 288 352 340 68 96 135 154 225 138 167 194 169 217 224 103 142 114 155 143 7 195 171 214 212 227 238 255 292 53 342 342 350 350 66 58 2 327 304 169 157 128 81 73 71 46 66 116 112 117 196 108 67 50 44 44
320 315 310 306 304 306 314 313 319 347 79 170 179 215 232 254 246 235 209 192 245 36 94 239 294 297 278 321 317 321 28 356 305 3 326 40 99 235 140 138 149 192 181 208 268 43 128 101 222 256 92 106 35 222 248 248 239 260 277 286 195 161 75 26 40 63 120 328 315 282 315 96 105 111 96 75 76 57 88 119 190 82 55 53 39 29 359
321 318 311 307 306 313 322 347 119 35 105 201 267 276 315 167 186 264 182 162 173 243 209 235 196 295 316 319 294 281 15 332 329 34 295 298 46 350 152 170 93 208 175 59 178 272 218 236 129 178 194 27 197 228 245 265 265 247 276 271 273 126 56 51 2 289 15 352 317 339 103 117 106 95 100 118 88 14 80 56 44 85 72 43 18 12 6
320 318 310 308 314 338 125 71 74 107 105 256 178 89 270 298 291 256 190 198 281 161 193 258 172 246 252 306 324 309 342 308 306 292 231 304 303 85 30 115 212 169 41 152 231 115 203 87 165 247 67 189 222 203 235 220 257 272 233 216 145 159 174 190 196 187 137 224 262 128 114 105 107 116 115 111 91 49 98 101 78 79 86 67 28 347 353
321 318 314 313 315 141 48 88 5 133 53 273 286 291 293 284 98 116 153 199 209 223 252 266 263 237 199 282 300 271 355 319 341 312 309 326 305 328 357 1 249 332 207 222 207 207 73 41 246 148 200 207 242 228 231 210 218 247 272 116 192 212 194 136 29 34 102 135 124 82 100 110 104 128 140 124 96 295 109 92 71 72 70 66 46 11 27
322 319 337 349 8 41 93 186 117 331 320 303 306 273 146 170 107 43 26 186 235 200 221 210 253 272 88 251 254 270 345 282 63 334 309 143 291 274 18 294 340 294 256 268 313 20 26 45 353 259 267 253 274 272 259 243 255 265 265 197 189 224 168 126 158 187 137 148 87 100 95 90 120 133 154 161 168 143 105 78 14 358 15 76 72 34 47
327 309 9 16 77 254 218 65 336 325 314 262 190 209 209 119 148 201 200 215 250 223 187 208 260 239 233 243 263 240 234 292 321 24 289 286 5 305 351 337 21 14 343 326 169 90 231 104 29 344 263 283 307 39 356 285 271 251 251 242 216 186 179 175 184 198 193 191 187 184 167 165 172 179 189 166 151 355 21 338 307 340 21 25 51 107 91
337 356 346 328 288 257 307 301 336 332 290 185 323 174 197 199 217 279 100 180 236 223 171 244 230 228 215 237 290 306 127 195 243 302 294 301 145 280 313 219 257 340 268 302 259 350 243 256 13 0 281 252 246 309 324 325 318 324 305 278 205 198 188 169 175 229 221 212 308 155 153 126 134 147 168 178 165 159 177 191 188 125 210 41 332 38 57
340 316 300 256 269 307 304 319 326 128 66 106 21 10 61 249 221 166 98 47 241 254 216 254 240 250 207 238 227 259 270 210 255 56 230 268 271 61 279 279 30 279 285 253 279 62 79 88 176 246 262 262 289 323 326 318 317 330 345 346 96 166 151 139 139 189 208 160 123 123 125 121 134 123 165 169 163 166 154 142 151 152 166 166 107 70 96
287 286 284 287 294 291 307 307 105 334 29 59 134 261 250 270 298 264 178 268 340 294 265 178 292 321 304 232 240 242 270 193 159 185 260 283 283 239 265 328 347 176 259 168 59 70 74 217 286 268 272 329 325 311 299 310 344 339 28 22 96 130 132 130 121 51 342 83 87 97 92 107 137 142 152 156 150 131 128 128 130 149 146 73 76 107 100
298 303 108 343 334 324 1 317 266 108 105 336 40 349 352 48 340 272 320 266 264 266 330 197 273 282 252 205 263 189 240 129 249 223 213 261 341 60 321 7 48 228 236 41 44 63 110 210 232 257 356 330 324 316 316 318 321 326 357 18 43 56 104 106 95 87 47 59 78 91 106 101 82 68 78 97 106 98 76 68 123 134 124 128 114 100 88
155 89 282 30 340 283 95 350 160 44 350 90 114 210 324 19 273 25 346 330 346 294 41 344 330 351 312 21 328 306 276 234 166 276 250 261 340 284 28 253 247 340 38 302 37 221 240 243 257 352 333 319 316 330 339 343 338 313 52 42 44 60 72 92 105 101 80 71 73 77 84 87 92 84 81 64 53 108 111 93 85 102 114 120 106 89 75
345 343 22 0 341 266 68 295 321 112 213 305 145 136 138 196 274 191 295 330 223 301 314 302 300 306 284 300 268 243 254 284 78 268 269 262 266 152 195 294 331 10 356 266 332 316 315 236 95 332 344 339 327 322 321 316 327 329 325 6 48 52 93 95 80 78 72 69 78 80 84 82 82 74 62 68 70 92 133 130 139 131 129 116 107 103 90
44 77 12 44 339 312 101 221 339 98 14 161 86 126 304 290 282 281 290 345 291 304 311 314 308 293 284 268 247 277 253 332 277 233 243 284 259 252 254 251 199 289 337 13 149 225 233 53 353 337 332 318 311 308 304 293 298 299 283 72 11 39 55 98 104 94 102 115 111 105 95 76 84 93 83 71 81 90 90 108 131 133 129 119 122 129 135
91 76 97 107 207 274 71 194 323 44 345 315 213 339 305 296 290 281 289 289 284 297 297 287 277 269 279 294 274 257 197 183 246 244 10 254 242 290 5 331 283 207 202 256 247 254 305 344 335 325 323 319 313 306 297 301 314 325 323 39 148 36 57 95 114 116 120 115 113 104 100 101 89 84 114 91 65 67 89 107 118 131 133 126 127 120 130
297 265 104 251 258 247 7 79 352 280 225 237 293 307 303 300 302 299 278 259 277 293 300 318 318 322 235 192 201 275 295 246 279 245 215 299 88 319 339 278 240 241 211 247 241 346 317 328 330 328 324 316 308 301 302 310 324 340 323 304 87 126 143 140 141 131 134 126 117 107 101 97 107 102 82 93 103 84 92 104 119 117 116 120 126 141 152
131 131 199 212 203 185 253 299 344 306 300 202 283 279 297 319 310 299 309 292 309 312 310 284 268 300 275 198 214 264 267 272 273 294 4 314 232 238 218 257 325 309 156 252 321 343 334 329 328 324 326 325 326 316 309 316 325 318 309 295 317 3 13 187 159 139 137 121 117 117 113 110 111 111 106 108 121 124 105 112 124 124 145 147 154 156 175
65 335 34 95 302 264 233 253 250 276 296 320 331 324 315 298 306 310 316 318 331 317 309 194 195 251 294 332 293 267 260 244 249 242 185 222 224 158 107 251 222 214 0 29 339 334 336 340 337 337 341 334 339 344 345 344 349 331 314 306 304 289 38 14 26 81 48 135 142 136 136 147 177 160 141 141 114 105 125 131 149 148 150 184 170 197 182
318 140 248 184 226 262 9 311 323 310 311 314 323 313 325 308 310 303 15 334 326 319 356 2 341 330 318 338 278 264 311 17 294 268 263 261 214 164 216 235 255 204 61 58 300 348 352 351 357 353 353 353 350 354 358 355 350 347 346 339 325 328 350 34 44 64 88 58 76 164 172 177 147 122 101 103 125 135 136 152 171 172 170 170 176 210 132
46 313 267 323 228 251 248 288 275 252 263 282 288 272 278 292 288 287 320 318 309 332 356 317 289 300 341 332 356 313 295 273 246 234 259 256 212 248 225 345 18 18 0 18 22 9 2 2 7 13 14 6 358 5 10 7 4 7 7 4 358 7 19 24 33 53 68 75 50 18 14 11 10 22 91 136 136 146 168 183 182 188 191 188 185 210 171